Flag Weather past 2 weeks in Flekkefjord, Norway

Now
41 °F

Quite cool.


Feels Like: 36 °F
Forecast: 46 / 51 °F
Wind: 8 mph from East

Location: Lista Fyr

Current Time: Nov 22, 2014 at 5:03:24 PM

Latest Report: Nov 22, 2014 at 4:00 PM


Visibility: N/A

Pressure: 30.14 "Hg

Humidity: 88%

Dew point: 38 °F

Location of FlekkefjordLocation

Historic Weather in Flekkefjord — Graph

°F

Flekkefjord temperature yesterday

Maximum temperature yesterday: 42 °F (at 3:00 PM)
Minimum temperature yesterday: 34 °F (at 2:00 AM)
Average temperature yesterday: 37 °F

Past Weeks' High & Low Weather Summary

 TemperatureHumidityPressure
High53 °F (Nov 9, 5:00 AM)93% (Nov 8, 4:00 AM)30.47 "Hg (Nov 8, 4:00 AM)
Low34 °F (Nov 21, 2:00 AM)60% (Nov 19, 7:00 AM)29.41 "Hg (Nov 8, 3:00 AM)
Average46 °F78%29.96 "Hg
* Reported Nov 7 3:00 PM — Nov 22 3:00 PM, Flekkefjord, Weather by CustomWeather, © 2014

Note: Actual official high and low records may vary slightly from our data, if they occured in-between our weather recording intervals... More about our weather records

Advertising

Flekkefjord weather history for previous 24 hours

 ConditionsComfort  
Time TempWeatherWind HumidityBarometerVisibility
3:00 PM
Nov 22
42 °FQuite cool.8 mph87%30.15 "HgN/A
2:00 PM41 °FQuite cool.8 mph86%30.16 "HgN/A
1:00 PM42 °FSprinkles. Overcast.8 mph84%30.16 "Hg9 mi
12:00 PM41 °FQuite cool.9 mph86%30.18 "HgN/A
11:00 AM41 °FQuite cool.8 mph84%30.19 "HgN/A
10:00 AM41 °FSprinkles. Overcast.8 mph81%30.19 "Hg16 mi
8:00 AM40 °FChilly.7 mph79%30.21 "HgN/A
7:00 AM40 °FOvercast.7 mph77%30.21 "Hg19 mi
6:00 AM40 °FChilly.7 mph78%30.22 "HgN/A
5:00 AM39 °FChilly.7 mph78%30.22 "HgN/A
4:00 AM40 °FChilly.6 mph77%30.24 "HgN/A
3:00 AM39 °FChilly.6 mph76%30.25 "HgN/A
2:00 AM36 °FChilly.5 mph77%30.27 "HgN/A
1:00 AM36 °FChilly.3 mph75%30.28 "HgN/A
12:00 AM35 °FChilly.5 mph77%30.29 "HgN/A
11:00 PM
Nov 21
36 °FChilly.2 mph77%30.31 "HgN/A
10:00 PM36 °FChilly.5 mph75%30.31 "HgN/A
9:00 PM37 °FChilly.3 mph73%30.32 "HgN/A
8:00 PM36 °FChilly.5 mph75%30.31 "HgN/A
7:00 PM35 °FPassing clouds.5 mph76%30.32 "Hg19 mi
6:00 PM34 °FChilly.2 mph75%30.32 "HgN/A
5:00 PM36 °FChilly.3 mph72%30.32 "HgN/A
Weather by CustomWeather, © 2014

See weather overviewHow to use our weather pages